Location: Caltech
(34.1382°N, 118.1253°W)
Time: 19:01:56
(UTC-07:00)

Iridium 72 - Visible Passes

Search period start: 20 April 2014 00:00
Search period end: 30 April 2014 00:00
Orbit: 776 x 779 km, 86.4° (Epoch: 20 April)

Date Brightness Start Highest point End Pass type
(mag) Time Alt. Az. Time Alt. Az. Time Alt. Az.
20 Apr 6.8 20:44:04 10° NNE 20:47:59 21° E 20:48:16 21° E visible
20 Apr 6.8 22:24:03 10° NNW 22:28:43 35° W 22:28:46 35° W visible
21 Apr 7.4 20:13:04 10° ENE 20:14:09 11° ENE 20:15:14 10° E visible
21 Apr 5.7 21:50:09 10° N 21:55:20 69° W 21:55:46 65° WSW visible
22 Apr 5.5 21:16:40 10° N 21:21:50 61° E 21:22:47 52° SE visible
22 Apr 8.2 23:00:01 10° WNW 23:01:54 12° W 23:03:17 11° W visible
23 Apr 6.3 20:43:35 10° NNE 20:48:12 31° E 20:49:50 26° ESE visible
23 Apr 7.5 22:24:37 10° NNW 22:28:41 24° W 22:30:20 20° WSW visible
24 Apr 7.1 20:11:13 10° NE 20:14:27 16° ENE 20:16:55 12° ESE visible
24 Apr 6.4 21:50:25 10° NNW 21:55:21 45° W 21:57:25 30° SW visible
25 Apr 5.4 21:16:41 10° N 21:21:55 89° W 21:24:31 31° S visible
26 Apr 5.8 20:43:21 10° NNE 20:48:22 47° E 20:51:39 20° SSE visible
26 Apr 8.1 22:25:33 10° NW 22:28:36 16° W 22:31:38 10° WSW visible
27 Apr 6.6 20:10:29 10° NNE 20:14:41 24° E 20:18:50 10° SE visible
27 Apr 7.2 21:50:50 10° NNW 21:55:20 30° W 21:59:20 12° SW visible
28 Apr 6.0 21:16:50 10° N 21:21:57 60° W 21:26:33 13° SSW visible
29 Apr 5.5 20:43:16 10° N 20:48:28 71° E 20:53:38 10° S visible
29 Apr 8.5 22:27:59 10° WNW 22:28:27 10° WNW 22:28:55 10° W visible
